Preview of NWS' New Version of Forecast
This preview is not operational and should not be used for support decisions.

Regional Weather Roundup (RWR)

Issued by National Weather Service (NWS)

                            
000
ASUS45 KABQ 210810
RWRNM 
NEW MEXICO REGIONAL WEATHER ROUNDUP
NATIONAL WEATHER SERVICE ALBUQUERQUE NM
100 AM MST THU FEB 21 2019

NOTE: "FAIR" MEANS FEW OR NO CLOUDS BELOW 12,000 FEET AGL WITH NO
       SIGNIFICANT WEATHER OR OBSTRUCTIONS TO VISION.

      THIS PRODUCT IS RELEASED AS TWO VERSIONS.  ONE VERSION NEAR
      THE TOP OF THE HOUR CONTAINING PRELIMINARY DATA FROM ALBUQUERQUE
      AND OTHER STATIONS.  A FINAL VERSION WITH ADDITIONAL DATA IS 
      ISSUED ABOUT 10 MINUTES AFTER THE HOUR.
 
NMZ501-503-504-510>518-210900-
NORTHWEST PLATEAU/NORTHCENTRAL MOUNTAINS
  
CITY           SKY/WX    TMP DP  RH WIND       PRES   REMARKS
FARMINGTON     CLOUDY    26  21  81 E13       29.67F WCI  15          
LOS ALAMOS     FAIR      24   9  52 SW7       29.71S WCI  16          
SANTA FE       FAIR      18  11  74 N5        29.71S WCI  11          
TAOS           FAIR       6   3  87 NE6       29.73  WCI  -4          
ANGEL FIRE       N/A      1  -3  85 S5        29.70S WCI  -9          

$$
NMZ402-403-502-505>509-210900-
WESTCENTRAL MOUNTAINS/SOUTHWEST MOUNTAINS
  
CITY           SKY/WX    TMP DP  RH WIND       PRES   REMARKS
GALLUP         CLOUDY    28  15  58 SW10      29.68F WCI  19          
GRANTS         CLOUDY    25  15  64 E6        29.71F WCI  18          
SILVER CITY    FAIR      33   8  35 CALM      29.77F                  

$$
NMZ407-409-411-412-210900-
SOUTHERN DESERTS
  
CITY           SKY/WX    TMP DP  RH WIND       PRES   REMARKS
DEMING         FAIR      23   3  42 W7        29.78S WCI  15          
LAS CRUCES     FAIR      35  13  40 SW8       29.79S WCI  28          
ALAMOGORDO     FAIR      34   7  32 S12       29.78F WCI  25          
T OR C         FAIR      35   4  27 CALM      29.75S                  

$$
NMZ519>523-210900-
CENTRAL VALLEYS/CENTRAL HIGHLANDS
  
CITY           SKY/WX    TMP DP  RH WIND       PRES   REMARKS
ALBUQUERQUE    MOCLDY    28  12  51 SE5       29.73F WCI  23          
DOUBLE EAGLE   FAIR      22  15  77 W8        29.73S WCI  12          
MORIARTY ARPT  FAIR      12   8  84 CALM      29.75S                  
CLINES CORNERS FAIR      23   5  46 SW18      29.71F WCI   9          
BELEN          FAIR      28  15  59 CALM      29.74S                  
SOCORRO        FAIR      27   4  38 S8        29.75S WCI  19          

$$
NMZ524>526-539-540-210900-
SOUTHCENTRAL MOUNTAINS
  
CITY           SKY/WX    TMP DP  RH WIND       PRES   REMARKS
RUIDOSO        NOT AVBL                                               

$$
NMZ527>531-210900-
NORTHEAST HIGHLANDS/NORTHEAST PLAINS
  
CITY           SKY/WX    TMP DP  RH WIND       PRES   REMARKS
LAS VEGAS      FAIR      16   8  71 S12       29.71S WCI   3          
RATON          FAIR      13   4  67 N6        29.70F WCI   4          
CLAYTON        FAIR      25  11  55 W12       29.73R WCI  14          

$$
NMZ532>537-210900-
EASTCENTRAL PLAINS
  
CITY           SKY/WX    TMP DP  RH WIND       PRES   REMARKS
SANTA ROSA     FAIR      21  10  63 CALM      29.76R                  
TUCUMCARI      FAIR      20   7  57 CALM      29.74F                  
CANNON AFB     FAIR      29   7  39 SE7       29.79S WCI  22          
CLOVIS AIRPORT FAIR      26  10  50 S6        29.79F WCI  19          

$$
NMZ028-029-538-210900-
SOUTHEAST PLAINS
  
CITY           SKY/WX    TMP DP  RH WIND       PRES   REMARKS
ROSWELL        FAIR      39   5  24 S3        29.77S                  
ARTESIA        FAIR      37   5  25 CALM      29.79S                  
CARLSBAD       FAIR      43  11  27 S9        29.78F                  
HOBBS          CLOUDY    45  27  49 S14G21    29.82S                  


$$